HAST,Max TemperatureF,Mean TemperatureF,Min TemperatureF,Max Dew PointF,MeanDew PointF,Min DewpointF,Max Humidity, Mean Humidity, Min Humidity, Max Sea Level PressureIn, Mean Sea Level PressureIn, Min Sea Level PressureIn, Max VisibilityMiles, Mean VisibilityMiles, Min VisibilityMiles, Max Wind SpeedMPH, Mean Wind SpeedMPH, Max Gust SpeedMPH,PrecipitationIn, CloudCover, Events, WindDirDegrees
2013-1-1,28,28,28,-18,-18,-18,12,12,12,29.43,29.41,29.39,10,10,10,7,5,,0.00,4,,225
2013-1-2,,,,,,,,,,,,,,,,,,,,,,
2013-1-3,35,32,30,-13,-15,-17,13,12,11,29.26,29.22,29.15,10,7,0,23,13,26,0.00,7,,265
2013-1-4,35,32,28,-13,-16,-18,13,12,11,29.04,28.93,28.87,10,8,0,21,12,26,0.00,4,,262
2013-1-5,35,30,26,-15,-16,-20,13,12,11,29.07,28.99,28.92,10,8,0,21,10,25,0.00,6,,194
2013-1-6,35,32,30,-13,-15,-18,13,12,11,29.59,29.17,28.95,10,9,1,29,11,36,0.00,7,,293
2013-1-7,39,34,28,-11,-13,-18,13,12,11,29.91,29.78,29.58,10,9,3,43,15,55,0.00,5,,220
2013-1-8,39,32,26,-11,-13,-18,13,12,11,29.56,29.52,29.47,10,9,2,44,22,62,0.00,5,,192
2013-1-9,37,32,28,-11,-15,-18,13,12,11,29.54,29.45,29.33,10,8,0,24,8,34,0.00,6,,177
2013-1-10,37,32,28,-11,-16,-18,13,12,11,29.70,29.56,29.39,10,9,2,18,8,24,0.00,3,,240
2013-1-11,35,30,26,-13,-15,-20,13,12,11,29.70,29.35,28.98,10,8,2,31,8,47,0.00,6,,36
2013-1-12,35,34,33,-13,-14,-15,12,11,11,29.30,29.06,28.99,10,8,3,34,23,46,0.00,8,,342
2013-1-13,37,34,32,-13,-15,-17,12,12,11,29.46,29.39,29.30,10,8,2,24,13,30,0.00,7,,59
2013-1-14,46,37,28,-6,-14,-18,13,12,11,29.95,29.69,29.46,10,9,2,18,8,20,0.00,6,,112
2013-1-15,37,32,28,-11,-15,-18,13,12,11,30.07,30.00,29.84,10,10,9,33,9,41,0.00,6,,94
2013-1-16,39,38,37,-9,-11,-13,12,12,11,29.82,29.60,29.50,10,6,2,39,32,50,0.00,8,,96
2013-1-17,42,37,32,-9,-12,-17,13,12,11,29.58,29.52,29.48,10,6,2,21,10,26,0.00,8,,107
2013-1-18,39,32,26,-11,-15,-18,13,12,11,29.67,29.60,29.45,10,10,8,13,3,,0.00,5,,298
2013-1-19,33,30,28,-15,-17,-18,13,13,11,29.44,29.09,28.92,10,10,5,20,12,25,0.00,7,,322
2013-1-20,33,32,30,-15,-16,-17,13,13,11,29.30,29.10,28.95,10,9,2,28,16,33,0.00,7,,295
2013-1-21,37,28,19,-11,-18,-26,14,12,11,29.58,29.50,29.31,10,10,3,26,13,32,0.00,1,,256
2013-1-22,35,28,21,-13,-17,-24,13,12,11,29.56,29.43,29.35,10,8,2,22,9,29,0.00,6,,59
2013-1-23,35,32,30,28,1,-17,81,36,11,29.81,29.61,29.44,10,9,2,24,12,30,0.00,7,,317
2013-1-24,37,35,33,36,27,19,93,73,52,29.86,29.80,29.67,10,9,2,22,11,30,0.00,7,,168
2013-1-25,37,34,30,34,28,25,87,73,65,29.91,29.84,29.68,10,10,8,18,9,23,0.00,6,,209
2013-1-26,35,30,26,28,24,19,87,79,69,29.98,29.94,29.90,10,10,10,9,2,21,0.00,1,,317
2013-1-27,37,34,30,30,25,19,86,71,56,29.94,29.70,29.37,10,8,2,24,11,47,0.00,7,,32
2013-1-28,33,32,30,32,24,19,100,73,56,29.35,29.09,29.00,10,6,1,33,20,52,0.00,8,,18
2013-1-29,30,29,28,25,21,16,86,71,55,29.41,29.21,29.05,10,9,2,24,17,31,0.00,7,,296
2013-1-30,32,28,24,21,16,10,74,62,47,29.72,29.58,29.42,10,10,4,23,8,26,0.00,4,,248
2013-1-31,35,30,24,30,22,16,81,68,60,29.80,29.76,29.67,10,10,5,18,4,24,0.00,5,,18